Volver al catálogo

STARLINK-34885

ActivoComunicacionesVLEO
NORAD 65328·PAYLOAD·🇺🇸 United States

Lanzado Aug 27, 2025 desde Cape Canaveral Space Force Station

Loading…

Próximos Pases (próximas 24 horas)

TLE

ActualizadoSource: CelesTrak SupGP

Época: Sep 14, 2026, 21:11 UTC

1 65328C 25189F   26257.88312500  .00047990  00000+0  15432-2 0  2570
2 65328  53.1602  46.4964 0001124  70.5116 296.5147 15.31678622    10

Sigue STARLINK-34885 en tiempo real con AllMySat

Download on the App Store